[[{"header":{"parameterUnit":"m.s-1","parameterCategory":1,"la1":30.2991,"la2":30.254,"lo1":-89.0895,"lo2":-89.0444,"dy":0.0017,"dx":0.0017,"nx":28,"ny":28,"refTime":"2024-08-20T21:00:00:Z","depth":0,"parameterNumber":2,"parameterNumberName":"U-component_of_WINDS"},"data":[0,0,0,0,0,0,0,0,0,0,0,0,0,0,0,0,0,0,0,0,0,0,0,0,0,0,0,0,0,0,0,0,0,0,0,0,0,0,0,0,0,0,0,0,0,0,0,0,0,0,0,0,0,0,0,0,0,0,-0.1717,-0.1716,0,-0.1656,-0.1655,-0.1655,-0.1525,-0.1523,-0.152,-0.1518,-0.1462,-0.1463,-0.1464,0,0,0,0,0,0,0,0,0,0,0,0,0,-0.1726,-0.1726,-0.1717,-0.1716,-0.1715,-0.1656,-0.1655,-0.1654,-0.1526,-0.1523,-0.1519,-0.1516,-0.1462,-0.1463,-0.1464,0,0,0,0,0,0,0,0,0,0,0,0,0,-0.1699,-0.1726,-0.1717,-0.1644,-0.1637,-0.1656,-0.1655,-0.1654,-0.1526,-0.1522,-0.1518,-0.1515,-0.1462,-0.1463,-0.1464,-0.1552,0,0,-0.1469,-0.147,0,0,0,0,0,0,0,0,-0.1701,-0.1699,-0.1655,-0.1649,-0.1641,-0.1594,-0.1638,-0.162,-0.1527,-0.1569,-0.1517,-0.1513,-0.151,-0.1507,-0.1504,-0.155,-0.1547,-0.1469,-0.147,-0.1471,-0.1471,0,0,0,0,0,0,0,-0.1703,-0.1701,-0.1693,-0.1655,-0.1646,-0.1615,-0.1607,-0.1634,-0.1562,-0.1565,-0.1555,-0.1549,-0.1505,-0.1503,-0.1502,-0.1547,-0.1469,-0.147,-0.1471,-0.1472,-0.166,-0.1664,0,0,0,0,0,0,-0.1715,-0.1703,-0.1695,-0.1691,-0.1662,-0.1618,-0.1609,-0.1613,-0.1561,-0.155,-0.1553,-0.1543,-0.1503,-0.1501,-0.15,-0.1599,-0.1471,-0.1472,-0.1473,-0.1656,-0.1661,-0.1665,0,0,0,0,0,0,-0.1715,-0.1715,-0.1697,-0.1695,-0.169,-0.1622,-0.1628,-0.1614,-0.1612,-0.1552,-0.1539,-0.1564,-0.15,-0.1498,-0.1539,-0.1596,-0.1473,-0.1474,-0.1651,-0.1657,-0.1663,-0.1799,0,0,0,0,0,0,-0.1716,-0.1716,-0.1748,-0.1696,-0.169,-0.1737,-0.1631,-0.1616,-0.1614,-0.1602,-0.156,-0.1549,-0.1496,-0.1538,-0.1541,-0.1595,-0.1475,-0.1645,-0.1654,-0.1661,-0.179,-0.181,-0.1826,0,0,0,0,0,-0.1717,-0.1791,-0.1751,-0.175,-0.1729,-0.1741,-0.1738,-0.1674,-0.1619,-0.1652,-0.1612,-0.155,-0.1588,-0.1543,-0.1546,-0.1601,-0.1642,-0.1651,-0.166,-0.1782,-0.1806,-0.1826,0,0,0,0,0,0,-0.1855,-0.1783,-0.1738,-0.1797,-0.1775,-0.1719,-0.1758,-0.1702,-0.1698,-0.1687,-0.1609,-0.1601,-0.1653,-0.1631,-0.1582,-0.1683,-0.1605,-0.1615,-0.1696,-0.1719,-0.1737,-0.1743,-0.1476,0,0,0,0,0,-0.1892,-0.1905,-0.1842,-0.1901,-0.1892,-0.1827,-0.183,-0.1782,-0.1758,-0.1749,-0.1713,-0.1694,-0.1701,-0.1708,-0.1712,-0.1784,-0.1774,-0.1824,-0.1842,-0.1857,-0.1868,-0.1905,-0.1926,-0.1695,-0.1695,-0.1695,0,0,-0.1969,-0.1931,-0.1946,-0.1927,-0.1905,-0.1923,-0.1821,-0.1844,-0.1857,-0.1753,-0.179,-0.1763,-0.1736,-0.1794,-0.1817,-0.1777,-0.1929,-0.1869,-0.1882,-0.1884,-0.1916,-0.1938,-0.1958,-0.1702,-0.17,-0.1699,0,0,-0.2119,-0.2091,-0.2137,-0.2115,-0.2082,-0.2037,-0.2048,-0.1999,-0.1977,-0.2011,-0.1934,-0.1948,-0.1962,-0.1946,-0.194,-0.208,-0.2023,-0.2083,-0.2181,-0.2217,-0.2235,-0.2251,-0.2302,-0.2321,-0.2093,-0.2093,-0.2094,0,-0.2221,-0.2242,-0.2168,-0.2195,-0.219,-0.2092,-0.2138,-0.2122,-0.2093,-0.2092,-0.2046,-0.206,-0.2035,-0.2087,-0.2121,-0.2119,-0.213,-0.2089,-0.2238,-0.2253,-0.2267,-0.2315,-0.2334,-0.2101,-0.21,-0.2099,-0.2099,0,-0.2369,-0.2385,-0.2425,-0.2396,-0.2395,-0.2432,-0.2363,-0.2371,-0.2322,-0.2283,-0.2319,-0.2285,-0.228,-0.2287,-0.2242,-0.2333,-0.2309,-0.2251,-0.2172,-0.2298,-0.2341,-0.2359,-0.2112,-0.2109,-0.2107,-0.2105,0,0,-0.2609,-0.2534,-0.2551,-0.2536,-0.249,-0.2502,-0.2533,-0.2525,-0.2534,-0.2515,-0.2541,-0.2553,-0.2499,-0.2492,-0.2442,-0.2474,-0.2587,-0.2412,-0.241,-0.2447,-0.2687,-0.2732,-0.2754,-0.2547,-0.255,-0.2553,-0.2689,0,-0.275,-0.2799,-0.2731,-0.2796,-0.281,-0.2716,-0.2743,-0.2719,-0.2682,-0.269,-0.2649,-0.2659,-0.2586,-0.2581,-0.2608,-0.2568,-0.2635,-0.2557,-0.2573,-0.2574,-0.2585,-0.2777,-0.2825,-0.2956,-0.2706,-0.2709,-0.2711,0,-0.2923,-0.291,-0.2976,-0.2923,-0.2927,-0.2953,-0.2939,-0.2946,-0.2916,-0.2887,-0.2877,-0.2816,-0.2845,-0.2765,-0.2803,-0.2752,-0.2753,-0.2734,-0.2738,-0.2739,-0.2653,-0.2786,-0.2996,-0.3017,-0.2737,-0.2735,-0.2733,0,-0.3094,-0.3092,-0.3131,-0.3121,-0.3061,-0.3081,-0.3057,-0.3023,-0.3021,-0.3009,-0.3007,-0.3,-0.2996,-0.2992,-0.2931,-0.2878,-0.2977,-0.2892,-0.2955,-0.2957,-0.2984,-0.2984,-0.32,-0.2981,-0.2981,-0.298,-0.298,0,-0.3261,-0.3305,-0.3206,-0.3231,-0.3277,-0.3198,-0.3246,-0.3213,-0.3183,-0.32,-0.3117,-0.3136,-0.3052,-0.3061,-0.3014,-0.3053,-0.3052,-0.303,-0.3018,-0.3039,-0.3042,-0.3042,-0.3032,-0.2985,-0.2984,-0.2983,-0.2982,0,-0.3461,-0.3396,-0.3432,-0.337,-0.3356,-0.3393,-0.3341,-0.3361,-0.3317,-0.3339,-0.334,-0.3272,-0.3278,-0.3215,-0.321,-0.3178,-0.324,-0.321,-0.325,-0.3242,-0.3309,-0.3305,-0.3535,-0.3562,-0.3324,-0.3327,-0.3329,0,-0.3573,-0.3604,-0.3545,-0.3548,-0.3528,-0.3536,-0.3533,-0.3455,-0.3456,-0.3422,-0.3447,-0.3445,-0.344,-0.3454,-0.3406,-0.3401,-0.3372,-0.3453,-0.3371,-0.3391,-0.3375,-0.3375,-0.3378,-0.3471,-0.3474,-0.3477,-0.3479,0,-0.378,-0.3745,-0.3743,-0.3729,-0.3727,-0.3713,-0.3694,-0.3702,-0.3618,-0.3622,-0.3626,-0.3622,-0.3614,-0.3615,-0.3599,-0.3576,-0.3515,-0.3504,-0.3518,-0.3543,-0.3565,-0.3555,-0.33,-0.35,-0.3498,-0.3496,-0.3495,-0.3494,-0.394,-0.3963,-0.3924,-0.3924,-0.39,-0.3883,-0.3899,-0.3855,-0.3856,-0.3842,-0.3796,-0.3808,-0.3775,-0.3748,-0.373,-0.3738,-0.3699,-0.3721,-0.3726,-0.3733,-0.3746,-0.3561,-0.3735,-0.3734,-0.3734,-0.3733,-0.3733,0,-0.4144,-0.4113,-0.4113,-0.4087,-0.4087,-0.4024,-0.3999,-0.4004,-0.4014,-0.3987,-0.3982,-0.3986,-0.3985,-0.3934,-0.3927,-0.3944,-0.3915,-0.3945,-0.3944,-0.394,-0.3781,-0.377,-0.3968,-0.3968,-0.3968,-0.3968,-0.3968,-0.3968,-0.425,-0.4285,-0.4246,-0.4268,-0.4237,-0.4246,-0.4237,-0.4221,-0.4199,-0.4206,-0.4203,-0.4169,-0.4132,-0.4121,-0.4117,-0.4102,-0.4104,-0.4144,-0.412,-0.3974,-0.3951,-0.393,-0.3919,-0.4145,-0.4145,-0.4278,-0.428,-0.4281]},{"header":{"parameterUnit":"m.s-1","parameterCategory":1,"la1":30.2991,"la2":30.254,"lo1":-89.0895,"lo2":-89.0444,"dy":0.0017,"dx":0.0017,"nx":28,"ny":28,"refTime":"2024-08-20T21:00:00:Z","depth":0,"parameterNumber":3,"parameterNumberName":"V-component_of_WINDS"},"data":[0,0,0,0,0,0,0,0,0,0,0,0,0,0,0,0,0,0,0,0,0,0,0,0,0,0,0,0,0,0,0,0,0,0,0,0,0,0,0,0,0,0,0,0,0,0,0,0,0,0,0,0,0,0,0,0,0,0,-3.2494,-3.2495,0,-3.2576,-3.2577,-3.2578,-3.2541,-3.2539,-3.2537,-3.2535,-3.2617,-3.2621,-3.2625,0,0,0,0,0,0,0,0,0,0,0,0,0,-3.2304,-3.2307,-3.2494,-3.2495,-3.2496,-3.2576,-3.2577,-3.2578,-3.2541,-3.2539,-3.2536,-3.2534,-3.2616,-3.2621,-3.2626,0,0,0,0,0,0,0,0,0,0,0,0,0,-3.2386,-3.2308,-3.2494,-3.2487,-3.2488,-3.2575,-3.2577,-3.2578,-3.2542,-3.2539,-3.2536,-3.2533,-3.2615,-3.262,-3.2627,-3.2725,0,0,-3.2645,-3.2648,0,0,0,0,0,0,0,0,-3.2381,-3.2393,-3.2487,-3.2488,-3.2488,-3.2545,-3.254,-3.2627,-3.2543,-3.2521,-3.2535,-3.2532,-3.2596,-3.2603,-3.2625,-3.2729,-3.2732,-3.2646,-3.2649,-3.2652,-3.2654,0,0,0,0,0,0,0,-3.2376,-3.2389,-3.2526,-3.2489,-3.2489,-3.248,-3.2488,-3.2556,-3.2574,-3.2523,-3.252,-3.2531,-3.2595,-3.2619,-3.2627,-3.2733,-3.2646,-3.2651,-3.2655,-3.2657,-3.292,-3.2923,0,0,0,0,0,0,-3.237,-3.2385,-3.2523,-3.2529,-3.2426,-3.2485,-3.2495,-3.253,-3.2574,-3.2577,-3.2533,-3.2529,-3.261,-3.262,-3.263,-3.2746,-3.2652,-3.2658,-3.2661,-3.2917,-3.2921,-3.2924,0,0,0,0,0,0,-3.2366,-3.2383,-3.252,-3.2456,-3.2473,-3.2492,-3.2532,-3.2533,-3.2557,-3.2581,-3.2584,-3.2554,-3.2608,-3.2621,-3.2701,-3.2749,-3.266,-3.2666,-3.2913,-3.2918,-3.2922,-3.2982,0,0,0,0,0,0,-3.2361,-3.2382,-3.242,-3.2457,-3.2476,-3.2591,-3.2535,-3.2537,-3.2568,-3.2563,-3.2602,-3.2606,-3.2607,-3.2692,-3.2707,-3.2756,-3.2671,-3.2909,-3.2915,-3.2921,-3.2976,-3.2988,-3.2999,0,0,0,0,0,-3.2354,-3.2434,-3.2422,-3.2439,-3.2525,-3.2594,-3.2605,-3.2605,-3.2572,-3.261,-3.2625,-3.2604,-3.2741,-3.2701,-3.2717,-3.2768,-3.2906,-3.2913,-3.292,-3.297,-3.2986,-3.2999,0,0,0,0,0,0,-3.2401,-3.2438,-3.2426,-3.252,-3.2554,-3.2588,-3.2636,-3.2622,-3.2666,-3.2659,-3.2657,-3.2667,-3.2749,-3.2767,-3.2721,-3.2865,-3.2818,-3.2829,-3.285,-3.2865,-3.2877,-3.287,-3.2676,0,0,0,0,0,-3.2423,-3.2477,-3.2506,-3.2586,-3.2603,-3.2617,-3.2647,-3.2644,-3.268,-3.2694,-3.2715,-3.275,-3.28,-3.2834,-3.2882,-3.2978,-3.2985,-3.3021,-3.3033,-3.3042,-3.3052,-3.3102,-3.3118,-3.2949,-3.2949,-3.2949,0,0,-3.2467,-3.2494,-3.2528,-3.2596,-3.2622,-3.2677,-3.2629,-3.269,-3.2731,-3.2703,-3.278,-3.2797,-3.2835,-3.2923,-3.2963,-3.294,-3.31,-3.3052,-3.3059,-3.3063,-3.3112,-3.3128,-3.3142,-3.2954,-3.2953,-3.2952,0,0,-3.2576,-3.2603,-3.2671,-3.2698,-3.2739,-3.2747,-3.2763,-3.2799,-3.281,-3.2887,-3.2867,-3.2915,-3.3002,-3.303,-3.3055,-3.3174,-3.3156,-3.3189,-3.325,-3.3299,-3.3313,-3.3325,-3.3366,-3.3381,-3.3199,-3.3199,-3.3199,0,-3.2626,-3.2709,-3.2708,-3.277,-3.28,-3.2778,-3.2847,-3.2873,-3.2927,-3.2947,-3.2921,-3.303,-3.3054,-3.3148,-3.3177,-3.3198,-3.3216,-3.3185,-3.3311,-3.3323,-3.3334,-3.3373,-3.3389,-3.3203,-3.3202,-3.3202,-3.3202,0,-3.2768,-3.2826,-3.2877,-3.2929,-3.2964,-3.303,-3.3038,-3.3073,-3.3067,-3.3078,-3.3156,-3.3184,-3.3237,-3.3259,-3.3254,-3.3352,-3.3336,-3.3311,-3.3264,-3.3354,-3.339,-3.3406,-3.3208,-3.3207,-3.3206,-3.3205,0,0,-3.291,-3.296,-3.2979,-3.3002,-3.3044,-3.3088,-3.3152,-3.3204,-3.3234,-3.3271,-3.3324,-3.3398,-3.3374,-3.3403,-3.3401,-3.3444,-3.3535,-3.3413,-3.3414,-3.3434,-3.3643,-3.3661,-3.3679,-3.3523,-3.3526,-3.3528,-3.3639,0,-3.3021,-3.3133,-3.3134,-3.3236,-3.3289,-3.3268,-3.3323,-3.3354,-3.3366,-3.3411,-3.3423,-3.3476,-3.3441,-3.3458,-3.35,-3.3515,-3.3577,-3.3507,-3.3571,-3.3573,-3.3561,-3.3698,-3.3718,-3.3822,-3.3654,-3.3656,-3.3658,0,-3.3167,-3.3209,-3.3317,-3.335,-3.3372,-3.3422,-3.3469,-3.3513,-3.3548,-3.3553,-3.3585,-3.3575,-3.3638,-3.359,-3.3677,-3.3629,-3.3655,-3.3666,-3.367,-3.3676,-3.3621,-3.3707,-3.3855,-3.387,-3.3681,-3.3679,-3.3677,0,-3.3258,-3.3342,-3.3417,-3.3437,-3.3478,-3.3514,-3.3532,-3.3564,-3.3595,-3.3635,-3.3655,-3.3702,-3.3728,-3.3765,-3.3768,-3.3732,-3.3855,-3.3806,-3.386,-3.386,-3.3886,-3.3884,-3.404,-3.3904,-3.3904,-3.3904,-3.3904,0,-3.3382,-3.3449,-3.3458,-3.3504,-3.3578,-3.3577,-3.365,-3.3665,-3.3693,-3.3741,-3.3726,-3.3771,-3.3773,-3.3819,-3.3822,-3.3892,-3.3904,-3.3909,-3.3909,-3.391,-3.391,-3.3927,-3.392,-3.3908,-3.3907,-3.3906,-3.3906,0,-3.3496,-3.3506,-3.3586,-3.3618,-3.3627,-3.368,-3.3707,-3.375,-3.376,-3.3821,-3.3835,-3.385,-3.3903,-3.391,-3.3972,-3.3974,-3.4059,-3.4051,-3.4047,-3.4046,-3.4098,-3.4093,-3.427,-3.4293,-3.4143,-3.4144,-3.4146,0,-3.3575,-3.3625,-3.3663,-3.3694,-3.3714,-3.3765,-3.3796,-3.3797,-3.3829,-3.3872,-3.391,-3.3962,-3.4003,-3.4089,-3.4105,-3.4152,-3.4145,-3.4204,-3.4152,-3.4151,-3.4144,-3.4141,-3.4146,-3.4213,-3.4215,-3.4216,-3.4218,0,-3.3713,-3.3714,-3.376,-3.3807,-3.3844,-3.3881,-3.3916,-3.3942,-3.3947,-3.3984,-3.4039,-3.4071,-3.4134,-3.4185,-3.4231,-3.4249,-3.4234,-3.4234,-3.4248,-3.425,-3.4245,-3.4247,-3.4073,-3.423,-3.4228,-3.4228,-3.4227,-3.4226,-3.3811,-3.3854,-3.3887,-3.3938,-3.3964,-3.3996,-3.4038,-3.4053,-3.4098,-3.415,-3.4147,-3.4207,-3.4238,-3.4299,-3.4321,-3.4366,-3.4347,-3.4368,-3.4374,-3.4379,-3.4383,-3.4238,-3.4375,-3.4375,-3.4374,-3.4374,-3.4374,0,-3.3947,-3.3966,-3.4013,-3.4062,-3.4102,-3.4084,-3.4121,-3.4155,-3.4208,-3.4239,-3.428,-3.4341,-3.4391,-3.441,-3.4458,-3.4491,-3.4485,-3.4503,-3.45,-3.4504,-3.4399,-3.4381,-3.4507,-3.4507,-3.4507,-3.4507,-3.4507,-3.4507,-3.4022,-3.4094,-3.41,-3.4184,-3.4203,-3.4261,-3.4284,-3.4313,-3.4338,-3.4408,-3.4448,-3.4461,-3.4487,-3.4536,-3.458,-3.4584,-3.4602,-3.4624,-3.4625,-3.4526,-3.4512,-3.4499,-3.4482,-3.4628,-3.4628,-3.4727,-3.4727,-3.4728]}]]